Other Public Products
Issued by NWS Grand Forks, ND

Home | Current Version | Previous Version | Text Only | Print | Product List | Glossary On
Versions: 1 2 3 4 5 6 7 8 9 10 11 12 13 14 15 16 17 18 19 20 21 22 23 24 25 26 27 28 29 30 31 32 33 34 35 36 37 38 39 40 41 42 43 44 45 46 47 48 49 50
000
FPUS83 KFGF 171810
OPUFGF
PRAIRIE TO PINES WEATHER ROUNDUP
NATIONAL WEATHER SERVICE EASTERN NORTH DAKOTA/GRAND FORKS ND
100 PM CDT THU AUG 17 2017

 **SATELLITE DATA USED TO AUGMENT SKY COVER AT AUTOMATED STATIONS**
 *****  WEATHER ACROSS EASTERN NORTH DAKOTA  *****

CITY           SKY/WX    TMP DP  RH WIND       PRES   REMARKS
GRAND FORKS    FAIR      73  63  70 NW5       29.84S
6HR MIN TEMP:  59; 6HR MAX TEMP:  74;

GRAND FORKS AF FAIR      73  62  68 N9        29.86S
GRAND CITY NWS NOT AVBL
BUXTON           N/A     76  62  61 NW8         N/A
DEVILS LAKE    FAIR      74  53  48 W6        29.90S
6HR MIN TEMP:  54; 6HR MAX TEMP:  74;

FARGO          FAIR      74  64  71 N8        29.83S
6HR MIN TEMP:  61; 6HR MAX TEMP:  74;

WAHPETON ARPT  FAIR      70  59  68 N9        29.83F
$$

 *****  WEATHER ACROSS CENTRAL AND WESTERN NORTH DAKOTA  *****

CITY           SKY/WX    TMP DP  RH WIND       PRES   REMARKS
JAMESTOWN      FAIR      76  57  51 NW7       29.89S
6HR MIN TEMP:  54; 6HR MAX TEMP:  76;

BISMARCK       FAIR      79  52  38 SE13      29.89F
6HR MIN TEMP:  54; 6HR MAX TEMP:  79;

MINOT          FAIR      83  47  28 SE9G20    29.86F
6HR MIN TEMP:  59; 6HR MAX TEMP:  83;

MINOT AFB      FAIR      80  49  33 S10       29.85S
6HR MIN TEMP:  58; 6HR MAX TEMP:  80;

GARRISON         N/A     76  56  49 S14       29.86F
6HR MIN TEMP:  55; 6HR MAX TEMP:  76;

WILLISTON      FAIR      79  56  45 CALM      29.84S
6HR MIN TEMP:  62; 6HR MAX TEMP:  79;

DICKINSON      FAIR      80  53  39 W6        29.87S
6HR MIN TEMP:  57; 6HR MAX TEMP:  80;

HETTINGER      FAIR      80  50  34 S6        29.90F
6HR MIN TEMP:  56; 6HR MAX TEMP:  81;

$$

 *****  OTHER OBSERVATIONS NORTHEAST NORTH DAKOTA  *****

CITY           SKY/WX    TMP DP  RH WIND       PRES   REMARKS
WALHALLA       FAIR      75  75 100 CALM      29.85S
LANGDON        FAIR      77  57  50 W8        29.89S
CAVALIER       FAIR      73  61  64 VRB6      29.85S
GRAFTON        FAIR      73  64  73 VRB5      29.86F
CANDO          FAIR      77  54  44 N5        29.91F
FORT TOTTEN      N/A     77  59  54 NW3       29.95S
ROLLA          FAIR      73  52  46 VRB3      29.91S
RUGBY          FAIR      77  50  38 S5        29.89S
 ***** THE ABOVE OBSERVATIONS ARE NON NWS ARE NOT QUALITY
        CONTROLLED AND MAY MIS-REPORT RAIN FOR SNOW...
$$

 *****  OTHER OBSERVATIONS SOUTHEAST NORTH DAKOTA *****

CITY           SKY/WX    TMP DP  RH WIND       PRES   REMARKS
COOPERSTOWN    FAIR      75  61  60 NW10      29.89S
VALLEY CITY      N/A     75  59  57 N8        29.89S
OAKES          NOT AVBL
GWINNER        CLEAR     75  61  60 NW9       29.88R
SHEYENNE NWR     N/A     75  62  62 N7        29.95S
BUFFALO          N/A     74  53  48 NW8         N/A
WYNDMERE       NOT AVBL
 ***** THE ABOVE OBSERVATIONS ARE NON NWS ARE NOT QUALITY
       CONTROLLED AND MAY MIS-REPORT RAIN FOR SNOW...
$$

  *****  WEATHER ACROSS NORTHERN MINNESOTA  *****

CITY           SKY/WX    TMP DP  RH WIND       PRES   REMARKS
FLAG ISLAND    FAIR      70  54  56 CALM      29.81F
WARROAD        FAIR      70  63  78 E8        29.83F
ROSEAU         FAIR      72  61  68 N5        29.83S
HALLOCK        FAIR      73  63  68 NW5       29.83F
THF RVR FALLS  FAIR      73  59  61 NE12      29.83F
6HR MIN TEMP:  62; 6HR MAX TEMP:  73;

HALSTAD        NOT AVBL
FOSSTON        PTSUNNY   70  63  78 N10G17    29.83S
BAUDETTE       PTSUNNY   68  57  68 N10       29.81F
6HR MIN TEMP:  60; 6HR MAX TEMP:  69;

WASKISH        CLOUDY    66  61  82 N8        29.80F
CROOKSTON      FAIR      75  61  60 N9G17     29.83S
$$
  *****  WEATHER ACROSS CENTRAL AND WEST MINNESOTA  *****

CITY           SKY/WX    TMP DP  RH WIND       PRES   REMARKS
BEMIDJI        CLOUDY    64  59  85 N9G18     29.81R
PARK RAPIDS    CLOUDY    66  60  81 N14G21    29.80R
6HR MIN TEMP:  63; 6HR MAX TEMP:  65; 6HR PCP: TRACE;

WADENA         CLOUDY    63  63 100 N10       29.80R
DETROIT LAKES  PTSUNNY   68  61  77 N8        29.83S
MOORHEAD       FAIR      72  63  73 NW12      29.83F
FERGUS FALLS   FAIR      72  61  68 N13G21    29.82S
ELBOW LAKE     MOCLDY    69  62  77 N14G20    29.83R HAZE
MORRIS MN      FAIR      70  63  78 NW18      29.82S
STAPLES        CLOUDY    64  61  88 N13G18    29.78S
WHEATON        FAIR      72  61  68 NW10      29.85S
$$
  *****  WEATHER ELSEWHERE ACROSS MINNESOTA  *****

CITY           SKY/WX    TMP DP  RH WIND       PRES   REMARKS
DULUTH         LGT RAIN  61  61 100 N12       29.65R VSB 3/4
6HR MIN TEMP:  58; 6HR MAX TEMP:  61; 6HR PCP:  0.11;

INTRNTL FALLS  CLOUDY    62  59  90 N9        29.78F
6HR MIN TEMP:  59; 6HR MAX TEMP:  62; 6HR PCP:  0.09;

ELY            HVY RAIN  59  59 100 N6        29.70S
CLOQUET        DRIZZLE   61  57  88 NW13      29.68R
BRAINERD       CLOUDY    65  61  87 NW15      29.75S
6HR MIN TEMP:  61; 6HR MAX TEMP:  66; 6HR PCP:  0.09;

HIBBING        LGT RAIN  62  59  90 N13       29.71R
6HR MIN TEMP:  57; 6HR MAX TEMP:  62; 6HR PCP:  1.04;

ALEXANDRIA     CLOUDY    66  62  87 N13       29.82R
6HR MIN TEMP:  64; 6HR MAX TEMP:  67;

SAINT CLOUD    PTSUNNY   71  63  75 N16G23    29.72R
6HR MIN TEMP:  62; 6HR MAX TEMP:  71; 6HR PCP:  0.25;

MINNEAPOLIS    CLOUDY    66  60  81 NW16G25   29.70R
6HR MIN TEMP:  65; 6HR MAX TEMP:  68; 6HR PCP: TRACE;

$$

  *****  WEATHER ACROSS SOUTH DAKOTA  *****

CITY           SKY/WX    TMP DP  RH WIND       PRES   REMARKS
SIOUX FALLS    FAIR      77  62  59 NW16G24   29.89S
6HR MIN TEMP:  61; 6HR MAX TEMP:  77;

BROOKINGS      FAIR      72  61  68 NW15      29.89S
WATERTOWN      FAIR      74  61  63 NW16      29.89R
6HR MIN TEMP:  61; 6HR MAX TEMP:  74;

HURON          FAIR      77  60  55 NW10      29.91F
6HR MIN TEMP:  55; 6HR MAX TEMP:  77;

SISSETON         N/A     73  63  70 NW14      29.85R
ABERDEEN       FAIR      78  56  46 N9        29.90F
6HR MIN TEMP:  57; 6HR MAX TEMP:  78;

MITCHELL       FAIR      77  61  57 NW13      29.93F
PIERRE         FAIR      79  50  36 E12       29.89F
6HR MIN TEMP:  53; 6HR MAX TEMP:  79;

MOBRIDGE       FAIR      80  54  40 SE12      29.87F
RAPID CITY     FAIR      86  49  27 N3        29.92F
6HR MIN TEMP:  52; 6HR MAX TEMP:  86;

$$

  *****  SOME WEATHER IN NEARBY STATES *****

CITY           SKY/WX    TMP DP  RH WIND       PRES   REMARKS
GLASGOW MT     FAIR      77  44  30 N21G28    29.89R
6HR MIN TEMP:  52; 6HR MAX TEMP:  79; 6HR PCP: TRACE;

GREAT FALLS MT FAIR      81  37  20 N10G17    30.04R
6HR MIN TEMP:  56; 6HR MAX TEMP:  81;

CHEYENNE WY    FAIR      76  34  21 NW12G18   30.18S
6HR MIN TEMP:  52; 6HR MAX TEMP:  80;

SCOTTSBLUFF NE FAIR      82  50  32 NW8       30.04F
6HR MIN TEMP:  53; 6HR MAX TEMP:  82;

OMAHA NE       FAIR      80  59  48 NW21      29.93S
6HR MIN TEMP:  65; 6HR MAX TEMP:  80;

DES MOINES IA  FAIR      78  61  55 W15G24    29.84F
6HR MIN TEMP:  67; 6HR MAX TEMP:  78;

DAVENPORT IA   FAIR      78  65  63 W20G28    29.80S
6HR MIN TEMP:  71; 6HR MAX TEMP:  78;

CHICAGO IL     PTSUNNY   82  68  62 SW17      29.72F
6HR MIN TEMP:  73; 6HR MAX TEMP:  82; 6HR PCP:  0.02;

EAU CLAIRE WI  CLOUDY    72  65  78 W8        29.57R
6HR MIN TEMP:  66; 6HR MAX TEMP:  74; 6HR PCP:  0.17;

LA CROSSE WI   CLOUDY    75  65  70 W16       29.62S
6HR MIN TEMP:  71; 6HR MAX TEMP:  76; 6HR PCP: TRACE;

$$

  *****  SOME NATIONAL WEATHER *****

CITY           SKY/WX    TMP DP  RH WIND       PRES   REMARKS
LA GUARDIA NY  FAIR      79  65  62 NE9       30.02F
6HR MIN TEMP:  70; 6HR MAX TEMP:  80;


USA.gov is the U.S. government's official web portal to all federal, state and local government web resources and services.